Time,TemperatureF,DewpointF,PressureIn,WindDirection,WindDirectionDegrees,WindSpeedMPH,WindSpeedGustMPH,Humidity,HourlyPrecipIn,Conditions,Clouds,dailyrainin,SolarRadiationWatts/m^2,SoftwareType,DateUTC
2013-10-09 00:05:00,44.0,43.0,-100.00,East,90,0.0,2.0,96,0.00,,,0.00,0.000000,,2013-10-09 04:05:00,
2013-10-09 00:14:00,44.0,43.0,-100.00,East,90,0.0,2.0,96,0.00,,,0.00,0.000000,,2013-10-09 04:14:00,
2013-10-09 00:24:00,44.0,43.0,-100.00,East,90,0.0,2.0,96,0.00,,,0.00,0.000000,,2013-10-09 04:24:00,
2013-10-09 00:54:00,42.0,41.0,-100.00,SW,236,0.0,2.0,96,0.00,,,0.00,0.000000,,2013-10-09 04:54:00,
2013-10-09 01:04:00,42.0,41.0,-100.00,SW,236,0.0,2.0,96,0.00,,,0.00,0.000000,,2013-10-09 05:04:00,
2013-10-09 01:13:00,42.0,41.0,-100.00,SW,236,0.0,2.0,96,0.00,,,0.00,0.000000,,2013-10-09 05:13:00,
2013-10-09 01:22:00,42.0,41.0,-100.00,SW,236,0.0,2.0,96,0.00,,,0.00,0.000000,,2013-10-09 05:22:00,
2013-10-09 01:52:00,43.0,42.0,-100.00,ESE,103,0.0,2.0,97,0.00,,,0.00,0.000000,,2013-10-09 05:52:00,
2013-10-09 02:02:00,43.0,42.0,-100.00,ESE,103,0.0,2.0,97,0.00,,,0.00,0.000000,,2013-10-09 06:02:00,
2013-10-09 02:12:00,43.0,42.0,-100.00,ESE,103,0.0,2.0,97,0.00,,,0.00,0.000000,,2013-10-09 06:12:00,
2013-10-09 02:22:00,43.0,42.0,-100.00,ESE,103,0.0,2.0,97,0.00,,,0.00,0.000000,,2013-10-09 06:22:00,
2013-10-09 02:52:00,43.0,42.0,-100.00,East,96,1.0,2.0,97,0.00,,,0.00,0.000000,,2013-10-09 06:52:00,
2013-10-09 03:02:00,43.0,42.0,-100.00,East,96,1.0,2.0,97,0.00,,,0.00,0.000000,,2013-10-09 07:02:00,
2013-10-09 03:12:00,43.0,42.0,-100.00,East,96,1.0,2.0,97,0.00,,,0.00,0.000000,,2013-10-09 07:12:00,
2013-10-09 03:22:00,43.0,42.0,-100.00,East,96,1.0,2.0,97,0.00,,,0.00,0.000000,,2013-10-09 07:22:00,
2013-10-09 03:52:00,41.0,40.0,-100.00,ESE,118,0.0,2.0,97,0.00,,,0.00,0.000000,,2013-10-09 07:52:00,
2013-10-09 04:02:00,41.0,40.0,-100.00,ESE,118,0.0,2.0,97,0.00,,,0.00,0.000000,,2013-10-09 08:02:00,
2013-10-09 04:12:00,41.0,40.0,-100.00,ESE,118,0.0,2.0,97,0.00,,,0.00,0.000000,,2013-10-09 08:12:00,
2013-10-09 04:23:00,41.0,40.0,-100.00,ESE,118,0.0,2.0,97,0.00,,,0.00,0.000000,,2013-10-09 08:23:00,
2013-10-09 04:53:00,40.0,39.0,-100.00,ESE,104,0.0,2.0,98,0.00,,,0.00,0.000000,,2013-10-09 08:53:00,
2013-10-09 05:02:00,40.0,39.0,-100.00,ESE,104,0.0,2.0,98,0.00,,,0.00,0.000000,,2013-10-09 09:02:00,
2013-10-09 05:11:00,40.0,39.0,-100.00,ESE,104,0.0,2.0,98,0.00,,,0.00,0.000000,,2013-10-09 09:11:00,
2013-10-09 05:22:00,40.0,39.0,-100.00,ESE,104,0.0,2.0,98,0.00,,,0.00,0.000000,,2013-10-09 09:22:00,
2013-10-09 05:53:00,39.0,39.0,-100.00,SE,124,0.0,2.0,99,0.00,,,0.00,0.000000,,2013-10-09 09:53:00,
2013-10-09 06:03:00,39.0,39.0,-100.00,SE,124,0.0,2.0,99,0.00,,,0.00,0.000000,,2013-10-09 10:03:00,
2013-10-09 06:13:00,39.0,39.0,-100.00,SE,124,0.0,2.0,99,0.00,,,0.00,0.000000,,2013-10-09 10:13:00,
2013-10-09 06:23:00,39.0,39.0,-100.00,SE,124,0.0,2.0,99,0.00,,,0.00,0.000000,,2013-10-09 10:23:00,
2013-10-09 06:53:00,39.0,39.0,-100.00,SE,141,1.0,2.0,99,0.00,,,0.00,0.000000,,2013-10-09 10:53:00,
2013-10-09 07:02:00,39.0,39.0,-100.00,SE,141,1.0,2.0,99,0.00,,,0.00,0.000000,,2013-10-09 11:02:00,
2013-10-09 07:12:00,39.0,39.0,-100.00,SE,141,1.0,2.0,99,0.00,,,0.00,0.000000,,2013-10-09 11:12:00,
2013-10-09 07:22:00,39.0,39.0,-100.00,SE,141,1.0,2.0,99,0.00,,,0.00,0.000000,,2013-10-09 11:22:00,
2013-10-09 07:52:00,40.0,40.0,-100.00,ESE,102,1.0,3.0,99,0.00,,,0.00,0.000000,,2013-10-09 11:52:00,
2013-10-09 08:01:00,40.0,40.0,-100.00,ESE,102,1.0,3.0,99,0.00,,,0.00,0.000000,,2013-10-09 12:01:00,
2013-10-09 08:12:00,40.0,40.0,-100.00,ESE,102,1.0,3.0,99,0.00,,,0.00,0.000000,,2013-10-09 12:12:00,
2013-10-09 08:22:00,40.0,40.0,-100.00,ESE,102,1.0,3.0,99,0.00,,,0.00,0.000000,,2013-10-09 12:22:00,
2013-10-09 08:52:00,41.0,41.0,-100.00,SE,129,1.0,3.0,99,0.00,,,0.00,23.000000,,2013-10-09 12:52:00,
2013-10-09 09:02:00,41.0,41.0,-100.00,SE,129,1.0,3.0,99,0.00,,,0.00,23.000000,,2013-10-09 13:02:00,
2013-10-09 09:12:00,41.0,41.0,-100.00,SE,129,1.0,3.0,99,0.00,,,0.00,23.000000,,2013-10-09 13:12:00,
2013-10-09 09:22:00,41.0,41.0,-100.00,SE,129,1.0,3.0,99,0.00,,,0.00,23.000000,,2013-10-09 13:22:00,
2013-10-09 09:52:00,50.0,45.0,-100.00,ENE,62,3.0,4.0,82,0.00,,,0.00,220.000000,,2013-10-09 13:52:00,
2013-10-09 10:02:00,50.0,45.0,-100.00,ENE,62,3.0,4.0,82,0.00,,,0.00,220.000000,,2013-10-09 14:02:00,
2013-10-09 10:11:00,50.0,45.0,-100.00,ENE,62,3.0,4.0,82,0.00,,,0.00,220.000000,,2013-10-09 14:11:00,
2013-10-09 10:22:00,50.0,45.0,-100.00,ENE,62,3.0,4.0,82,0.00,,,0.00,220.000000,,2013-10-09 14:22:00,
2013-10-09 10:52:00,59.0,48.0,-100.00,ESE,107,3.0,5.0,68,0.00,,,0.00,356.000000,,2013-10-09 14:52:00,
2013-10-09 11:02:00,59.0,48.0,-100.00,ESE,107,3.0,5.0,68,0.00,,,0.00,356.000000,,2013-10-09 15:02:00,
2013-10-09 11:11:00,59.0,48.0,-100.00,ESE,107,3.0,5.0,68,0.00,,,0.00,356.000000,,2013-10-09 15:11:00,
2013-10-09 11:22:00,59.0,48.0,-100.00,ESE,107,3.0,5.0,68,0.00,,,0.00,356.000000,,2013-10-09 15:22:00,
2013-10-09 11:54:00,63.0,47.0,-100.00,SSE,158,2.0,5.0,55,0.00,,,0.00,498.000000,,2013-10-09 15:54:00,
2013-10-09 12:03:00,63.0,47.0,-100.00,SSE,158,2.0,5.0,55,0.00,,,0.00,498.000000,,2013-10-09 16:03:00,
2013-10-09 12:13:00,63.0,47.0,-100.00,SSE,158,2.0,5.0,55,0.00,,,0.00,498.000000,,2013-10-09 16:13:00,
2013-10-09 12:24:00,63.0,47.0,-100.00,SSE,158,2.0,5.0,55,0.00,,,0.00,498.000000,,2013-10-09 16:24:00,
2013-10-09 12:53:00,66.0,46.0,-100.00,WSW,239,2.0,5.0,49,0.00,,,0.00,586.000000,,2013-10-09 16:53:00,
2013-10-09 13:03:00,66.0,46.0,-100.00,WSW,239,2.0,5.0,49,0.00,,,0.00,586.000000,,2013-10-09 17:03:00,
2013-10-09 13:12:00,66.0,46.0,-100.00,WSW,239,2.0,5.0,49,0.00,,,0.00,586.000000,,2013-10-09 17:12:00,
2013-10-09 13:22:00,66.0,46.0,-100.00,WSW,239,2.0,5.0,49,0.00,,,0.00,586.000000,,2013-10-09 17:22:00,
2013-10-09 13:52:00,68.0,46.0,-100.00,ENE,62,3.0,7.0,45,0.00,,,0.00,623.000000,,2013-10-09 17:52:00,
2013-10-09 14:02:00,68.0,46.0,-100.00,ENE,62,3.0,7.0,45,0.00,,,0.00,623.000000,,2013-10-09 18:02:00,
2013-10-09 14:12:00,68.0,46.0,-100.00,ENE,62,3.0,7.0,45,0.00,,,0.00,623.000000,,2013-10-09 18:12:00,
2013-10-09 14:22:00,68.0,46.0,-100.00,ENE,62,3.0,7.0,45,0.00,,,0.00,623.000000,,2013-10-09 18:22:00,
2013-10-09 14:52:00,69.0,43.0,-100.00,ENE,71,4.0,6.0,39,0.00,,,0.00,607.000000,,2013-10-09 18:52:00,
2013-10-09 15:02:00,69.0,43.0,-100.00,ENE,71,4.0,6.0,39,0.00,,,0.00,607.000000,,2013-10-09 19:02:00,
2013-10-09 15:12:00,69.0,43.0,-100.00,ENE,71,4.0,6.0,39,0.00,,,0.00,607.000000,,2013-10-09 19:12:00,
2013-10-09 15:22:00,69.0,43.0,-100.00,ENE,71,4.0,6.0,39,0.00,,,0.00,607.000000,,2013-10-09 19:22:00,
2013-10-09 15:53:00,70.0,43.0,-100.00,SE,134,3.0,9.0,37,0.00,,,0.00,539.000000,,2013-10-09 19:53:00,
2013-10-09 16:02:00,70.0,43.0,-100.00,SE,134,3.0,9.0,37,0.00,,,0.00,539.000000,,2013-10-09 20:02:00,
2013-10-09 16:11:00,70.0,43.0,-100.00,SE,134,3.0,9.0,37,0.00,,,0.00,539.000000,,2013-10-09 20:11:00,
2013-10-09 16:22:00,70.0,43.0,-100.00,SE,134,3.0,9.0,37,0.00,,,0.00,539.000000,,2013-10-09 20:22:00,
2013-10-09 16:52:00,69.0,42.0,-100.00,ESE,120,6.0,10.0,37,0.00,,,0.00,397.000000,,2013-10-09 20:52:00,
2013-10-09 17:03:00,69.0,42.0,-100.00,ESE,120,6.0,10.0,37,0.00,,,0.00,397.000000,,2013-10-09 21:03:00,
2013-10-09 17:12:00,69.0,42.0,-100.00,ESE,120,6.0,10.0,37,0.00,,,0.00,397.000000,,2013-10-09 21:12:00,
2013-10-09 17:23:00,69.0,42.0,-100.00,ESE,120,6.0,10.0,37,0.00,,,0.00,397.000000,,2013-10-09 21:23:00,
2013-10-09 17:54:00,67.0,43.0,-100.00,ESE,113,6.0,10.0,41,0.00,,,0.00,244.000000,,2013-10-09 21:54:00,
2013-10-09 18:03:00,67.0,43.0,-100.00,ESE,113,6.0,10.0,41,0.00,,,0.00,244.000000,,2013-10-09 22:03:00,
2013-10-09 18:13:00,67.0,43.0,-100.00,ESE,113,6.0,10.0,41,0.00,,,0.00,244.000000,,2013-10-09 22:13:00,
2013-10-09 18:24:00,67.0,43.0,-100.00,ESE,113,6.0,10.0,41,0.00,,,0.00,244.000000,,2013-10-09 22:24:00,
2013-10-09 18:53:00,65.0,45.0,-100.00,ESE,114,2.0,9.0,48,0.00,,,0.00,113.000000,,2013-10-09 22:53:00,
2013-10-09 19:03:00,65.0,45.0,-100.00,ESE,114,2.0,9.0,48,0.00,,,0.00,113.000000,,2013-10-09 23:03:00,
2013-10-09 19:12:00,65.0,45.0,-100.00,ESE,114,2.0,9.0,48,0.00,,,0.00,113.000000,,2013-10-09 23:12:00,
2013-10-09 19:22:00,65.0,45.0,-100.00,ESE,114,2.0,9.0,48,0.00,,,0.00,113.000000,,2013-10-09 23:22:00,
2013-10-09 19:53:00,57.0,47.0,-100.00,ENE,75,2.0,3.0,68,0.00,,,0.00,5.000000,,2013-10-09 23:53:00,
2013-10-09 20:02:00,57.0,47.0,-100.00,ENE,75,2.0,3.0,68,0.00,,,0.00,5.000000,,2013-10-10 00:02:00,
2013-10-09 20:12:00,57.0,47.0,-100.00,ENE,75,2.0,3.0,68,0.00,,,0.00,5.000000,,2013-10-10 00:12:00,
2013-10-09 20:22:00,57.0,47.0,-100.00,ENE,75,2.0,3.0,68,0.00,,,0.00,5.000000,,2013-10-10 00:22:00,
2013-10-09 20:52:00,56.0,48.0,-100.00,ESE,114,3.0,6.0,75,0.00,,,0.00,0.000000,,2013-10-10 00:52:00,
2013-10-09 21:02:00,56.0,48.0,-100.00,ESE,114,3.0,6.0,75,0.00,,,0.00,0.000000,,2013-10-10 01:02:00,
2013-10-09 21:11:00,56.0,48.0,-100.00,ESE,114,3.0,6.0,75,0.00,,,0.00,0.000000,,2013-10-10 01:11:00,
2013-10-09 21:22:00,56.0,48.0,-100.00,ESE,114,3.0,6.0,75,0.00,,,0.00,0.000000,,2013-10-10 01:22:00,
2013-10-09 21:52:00,52.0,49.0,-100.00,North,7,2.0,3.0,91,0.00,,,0.00,0.000000,,2013-10-10 01:52:00,
2013-10-09 22:02:00,52.0,49.0,-100.00,North,7,2.0,3.0,91,0.00,,,0.00,0.000000,,2013-10-10 02:02:00,
2013-10-09 22:12:00,52.0,49.0,-100.00,North,7,2.0,3.0,91,0.00,,,0.00,0.000000,,2013-10-10 02:12:00,
2013-10-09 22:22:00,52.0,49.0,-100.00,North,7,2.0,3.0,91,0.00,,,0.00,0.000000,,2013-10-10 02:22:00,
2013-10-09 23:12:00,50.0,49.0,-100.00,NE,51,1.0,3.0,95,0.00,,,0.00,0.000000,,2013-10-10 03:12:00,
2013-10-09 23:22:00,50.0,49.0,-100.00,NE,51,1.0,3.0,95,0.00,,,0.00,0.000000,,2013-10-10 03:22:00,
2013-10-09 23:55:00,49.0,48.0,-100.00,ESE,122,2.0,3.0,95,0.00,,,0.00,0.000000,,2013-10-10 03:55:00,